User: anonymous   Login
Location: Unspecified
(0.0000°N, 0.0000°E)
Time: 06:18:06
(UTC+00:00)
Language:

OPS 7613 P/L 1 - Orbit

View from above orbital plane
View from above orbital plane
View from above satellite
View from above satellite

Ground track
Ground track

The orbit data is extracted from the following two-line orbital elements,

1  4256U 69082B   17119.84664611 -.00000023 +00000-0 +20795-4 0  9990
2  4256 070.0095 282.3148 0017333 112.7761 247.5179 13.98254594424139
Epoch (UTC): 29 April 2017 20:19:10
Eccentricity: 0.0017333
inclination: 70.0095°
perigee height: 887 km
apogee height: 912 km
right ascension of ascending node: 282.3148°
argument of perigee: 112.7761°
revolutions per day: 13.98254594
mean anomaly at epoch: 247.5179°
orbit number at epoch: 42413

The dashed part of the orbit path shows where the satellite is in the earth's shadow,  

DLR